sat.trackr.live / text

‹ back to catalog

STARLINK-5403

NORAD 54862 · 2022-177AU

PAYLOAD ACTIVE UNKNOWN

§ Identity

Operator
Country
US
Launch date
2022-12-28
Launch site
AFETR
Launch vehicle
Mass (kg)
RCS (m²)

Purposes: comms

External: N2YO · Heavens-Above · Gunter

§ Orbital elements

Epoch: 2026-09-20T22:47:50.110656Z

Period
94.27 min
Inclination
43.0017°
Eccentricity
0.0001507
Mean motion
15.27571810 rev/d
Perigee alt
482.0 km
Apogee alt
484.1 km
Semi-major
6,861.2 km
B*
6.4909e-7
RAAN
98.8303°
Arg perigee
259.8775°
Mean anomaly
100.1907°
Rev number
20,695

§ Raw data

STARLINK-54031 54862U 22177AU  26263.94988554 -.00000244  00000+0  64909-6 0  99992 54862  43.0017  98.8303 0001507 259.8775 100.1907 15.27571810206956

JSON: /api/v1/satellites/54862 · /tle

For live sub-satellite position, see the globe view (requires WebGL).

§ Visibility from observer

Set your observer location to see the next 7 days of passes ≥ 10°. The values pass through the URL so the page stays shareable.

No JS? Fill the form by hand. The geolocation button needs JavaScript.